Weather Roundup
Issued by NWS

Home | Current Version | Previous Version | Graphics & Text | Print | Product List | Glossary Off
Versions: 1 2 3 4 5 6 7 8 9 10 11 12 13 14 15 16 17 18 19 20 21 22 23 24 25 26 27 28 29 30 31 32 33 34 35 36 37 38 39 40 41 42 43 44 45 46 47 48 49 50

000
NZUS93 KARX 291559
HRRWXR

CURRENT HOURLY OBSERVATIONS ACROSS
MUCH OF THE UPPER MISSISSIPPI VALLEY
NATIONAL WEATHER SERVICE LA CROSSE WI
1100 AM CDT THU SEP 29 2016


...SOUTHEAST MINNESOTA...


CITY           SKY/WX    TMP DP  RH WIND       PRES   REMARKS
ROCHESTER      CLOUDY    53  50  89 N10       30.46R
ROCHESTER/MAYO CLOUDY    51  52 100 NW5       30.46S
WINONA         MOSUNNY   55  50  82 N3        30.44F
AUSTIN         SUNNY     59  50  72 N6        30.44S
ALBERT LEA     SUNNY     59  50  72 NE7       30.45R
DODGE CENTER   CLOUDY    52  48  87 NE6       30.46R
PRESTON        MOSUNNY   53  49  86 N8        30.44S
OWATONNA       PTSUNNY   55  50  82 N8        30.46S
FARIBAULT      CLOUDY    54  52  94 NW6       30.47F
$$

...ELSEWHERE IN MINNESOTA...


CITY           SKY/WX    TMP DP  RH WIND       PRES   REMARKS
MINNEAPOLIS    MOSUNNY   60  49  66 NE8       30.48S
INTNL FALLS    CLOUDY    56  50  80 SE3       30.52S
DULUTH         CLOUDY    56  50  80 E10       30.52R
RED WING       SUNNY     61  50  67 E6        30.44F
REDWOOD FALLS  CLOUDY    55  49  80 E3        30.49S
MANKATO        CLOUDY    53  50  89 N7        30.49R
WORTHINGTON    MOSUNNY   57  50  77 NE6       30.48F
FAIRMONT       CLOUDY    50  50 100 N5        30.48S FOG
$$

...SOUTHWEST WISCONSIN...


CITY           SKY/WX    TMP DP  RH WIND       PRES   REMARKS
LA CROSSE      SUNNY     61  51  70 NW10      30.42S
PRAIRIE DU CHI SUNNY     61  49  65 NW7       30.37S
BOSCOBEL       SUNNY     66  51  58 NE9       30.36F
LONE ROCK      NOT AVBL
PLATTEVILLE    SUNNY     62  54  75 N14       30.33S
FORT MC COY    SUNNY     58  50  75 N8        30.42R
MAUSTON-NEW LI SUNNY     60  52  74 N6        30.38S
VIROQUA        FAIR      60  50  70 NE10      30.39S
WIS DELLS      SUNNY     61  52  71 NE8       30.35S
$$

...ELSEWHERE IN WISCONSIN...


CITY           SKY/WX    TMP DP  RH WIND       PRES   REMARKS
MILWAUKEE      MOSUNNY   65  57  75 NE13G22   30.27R
MADISON        MOSUNNY   62  54  74 N17G23    30.31S
GREEN BAY      LGT RAIN  63  57  81 N20G28    30.37S
EAU CLAIRE     NOT AVBL
BLACK RVR FLS  FAIR      58  48  68 N8        30.42S
MEDFORD        SUNNY     56  54  91 N9        30.45R
WAUSAU         SUNNY     60  51  72 VRB7      30.42S
WIS RAPIDS     SUNNY     64  52  64 N10       30.41S
MARSHFIELD     SUNNY     60  49  66 N10       30.42R
RICE LAKE      NOT AVBL
$$

...NORTHEAST IOWA...


CITY           SKY/WX    TMP DP  RH WIND       PRES   REMARKS
WATERLOO       SUNNY     64  51  62 N13       30.38R
DUBUQUE        SUNNY     62  52  69 N17       30.33R
DECORAH        SUNNY     61  52  72 N8        30.39S
MASON CITY     SUNNY     61  50  67 N10       30.44F
CHARLES CITY   SUNNY     61  52  72 N8G15     30.42S
OELWEIN        SUNNY     63  50  63 N14G22    30.38F
$$

...ELSEWHERE IN IOWA...


CITY           SKY/WX    TMP DP  RH WIND       PRES   REMARKS
DES MOINES     MOSUNNY   65  52  62 NE14      30.39S
IOWA CITY      SUNNY     65  53  65 N13       30.33S
FORT DODGE     CLOUDY    52  46  82 N6        30.46S
MARSHALLTOWN   SUNNY     62  53  72 N15       30.38S
CEDAR RAPIDS   SUNNY     64  54  69 N15       30.33S
$$

...NORTHERN ILLINOIS...


CITY           SKY/WX    TMP DP  RH WIND       PRES   REMARKS
CHICAGO-OHARE  CLOUDY    63  57  81 NE12G23   30.17R
CHICAGO-MIDWAY CLOUDY    65  58  78 NE16G24   30.16R
MOLINE         SUNNY     64  51  62 N13       30.27S
ROCKFORD       MOSUNNY   67  56  67 N20G30    30.25F
PEORIA         PTSUNNY   65  55  70 N12G22    30.19R
$$

NOTE: "FAIR" INDICATES FEW OR NO CLOUDS BELOW 12,000 FEET WITH NO
SIGNIFICANT WEATHER AND/OR OBSTRUCTIONS TO VISIBILITY. WIND
SPEEDS ARE IN MILES-PER-HOUR.




USA.gov is the U.S. government's official web portal to all federal, state and local government web resources and services.